CW8931 Weather Reports


time (UTC)temp
F
wind
direction
speed
knots
gust
knots
rain 1hr
in
rain 24hr
in
rain mn
in
humidity
%
barometer
mb
20260504185506 83 0.0 0.0 0.00 0.00 0.00 52 1013.6
20260504185007 83 0.0 0.0 0.00 0.00 0.00 52 1013.6
20260504184508 83 0.0 0.0 0.00 0.00 0.00 51 1013.8
20260504184003 84 0.0 0.0 0.00 0.00 0.00 50 1013.9
20260504183503 84 0.0 0.0 0.00 0.00 0.00 50 1013.9
20260504183005 84 0.0 0.0 0.00 0.00 0.00 51 1013.8
20260504182506 83 0.0 0.0 0.00 0.00 0.00 53 1014.0
20260504182003 83 0.0 0.0 0.00 0.00 0.00 51 1014.0
20260504181504 83 0.0 0.0 0.00 0.00 0.00 50 1014.1
20260504181003 84 0.0 0.0 0.00 0.00 0.00 51 1014.1
20260504180504 83 0.0 0.0 0.00 0.00 0.00 52 1014.1
20260504180007 83 0.0 0.0 0.00 0.00 0.00 52 1014.0
20260504175504 83 0.0 0.0 0.00 0.00 0.00 52 1014.2
20260504175006 82 0.0 0.0 0.00 0.00 0.00 52 1014.4
20260504174504 82 0.0 0.0 0.00 0.00 0.00 53 1014.5
20260504174002 82 0.0 0.0 0.00 0.00 0.00 53 1014.6
20260504173506 82 0.0 0.0 0.00 0.00 0.00 54 1014.6
20260504173003 82 0.0 0.0 0.00 0.00 0.00 53 1014.7
20260504172502 82 0.0 0.0 0.00 0.00 0.00 53 1014.4
20260504172003 82 0.0 0.0 0.00 0.00 0.00 53 1014.9
20260504171503 82 0.0 0.0 0.00 0.00 0.00 53 1014.9
20260504171003 82 0.0 0.0 0.00 0.00 0.00 52 1015.3
20260504170504 82 0.0 0.0 0.00 0.00 0.00 52 1015.1
20260504151006 76 0.0 0.0 0.00 0.00 0.00 61 1015.6
20260504150504 76 0.0 0.0 0.00 0.00 0.00 60 1015.7
20260504140503 71 0.0 0.0 0.00 0.00 0.00 65 1015.6
20260504130504 64 0.0 0.0 0.00 0.00 0.00 73 1015.5
20260504110506 59 0.0 0.0 0.00 0.00 0.00 76 1015.3
20260504100507 59 0.0 0.0 0.00 0.00 0.00 76 1015.6
20260504082007 60 0.0 0.0 0.00 0.00 0.00 73 1016.3
20260504081520 60 0.0 0.0 0.00 0.00 0.00 74 1016.2
20260504081007 60 0.0 0.0 0.00 0.00 0.00 74 1016.2
20260504080505 60 0.0 0.0 0.00 0.00 0.00 74 1016.3
20260504050506 63 0.0 0.0 0.00 0.00 0.00 66 1018.3
20260504050020 63 0.0 0.0 0.00 0.00 0.00 66 1018.3
20260504045506 64 0.0 0.0 0.00 0.00 0.00 66 1018.3
20260504045012 64 0.0 0.0 0.00 0.00 0.00 65 1018.3
20260504044535 64 0.0 0.0 0.00 0.00 0.00 64 1018.3
20260504044008 64 0.0 0.0 0.00 0.00 0.00 64 1018.4
20260504043509 64 0.0 0.0 0.00 0.00 0.00 63 1018.3
20260504043028 65 0.0 0.0 0.00 0.00 0.00 63 1018.4
20260504042511 65 0.0 0.0 0.00 0.00 0.00 62 1018.5
20260504042012 65 0.0 0.0 0.00 0.00 0.00 62 1018.5
20260504041512 65 0.0 0.0 0.00 0.00 0.00 62 1018.6
20260504041004 66 0.0 0.0 0.00 0.00 0.00 61 1018.6
20260504040507 66 0.0 0.0 0.00 0.00 0.00 61 1018.6
20260504040016 66 0.0 0.0 0.00 0.00 0.00 60 1018.6
20260504035511 66 0.0 0.0 0.00 0.00 0.00 60 1018.5
20260504035006 66 0.0 0.0 0.00 0.00 0.00 60 1018.4
20260504034531 66 0.0 0.0 0.00 0.00 0.00 59 1018.3
20260504034006 67 0.0 0.0 0.00 0.00 0.00 58 1018.4
20260504033513 67 0.0 0.0 0.00 0.00 0.00 58 1018.4
20260504033036 67 0.0 0.0 0.00 0.00 0.00 58 1018.5
20260504032508 67 0.0 0.0 0.00 0.00 0.00 57 1018.6
20260504032010 67 0.0 0.0 0.00 0.00 0.00 57 1018.5
20260504031527 68 0.0 0.0 0.00 0.00 0.00 57 1018.4
20260504031008 68 0.0 0.0 0.00 0.00 0.00 57 1018.3
20260504030511 68 0.0 0.0 0.00 0.00 0.00 57 1018.2
20260504030025 68 0.0 0.0 0.00 0.00 0.00 55 1018.3
20260504025505 68 0.0 0.0 0.00 0.00 0.00 55 1018.3
20260504025005 68 0.0 0.0 0.00 0.00 0.00 55 1018.2
20260504024521 69 0.0 0.0 0.00 0.00 0.00 54 1018.2
20260504024007 69 0.0 0.0 0.00 0.00 0.00 54 1018.1
20260504023502 69 0.0 0.0 0.00 0.00 0.00 54 1018.1
20260504023005 69 0.0 0.0 0.00 0.00 0.00 53 1017.9
20260504022504 69 0.0 0.0 0.00 0.00 0.00 53 1017.9
20260504022004 70 0.0 0.0 0.00 0.00 0.00 52 1017.9
20260504021504 70 0.0 0.0 0.00 0.00 0.00 52 1018.0
20260504021003 70 0.0 0.0 0.00 0.00 0.00 51 1017.9
20260504020503 70 0.0 0.0 0.00 0.00 0.00 51 1017.9
20260504020015 70 0.0 0.0 0.00 0.00 0.00 51 1017.9
20260504015505 71 0.0 0.0 0.00 0.00 0.00 50 1017.9
20260504015007 71 0.0 0.0 0.00 0.00 0.00 49 1017.7
20260504014518 71 0.0 0.0 0.00 0.00 0.00 49 1017.7
20260504014010 71 0.0 0.0 0.00 0.00 0.00 49 1017.7
20260504013507 72 0.0 0.0 0.00 0.00 0.00 48 1017.7
20260504013029 72 0.0 0.0 0.00 0.00 0.00 48 1017.6
20260504012503 72 0.0 0.0 0.00 0.00 0.00 48 1017.7
20260504012002 72 0.0 0.0 0.00 0.00 0.00 47 1017.7
20260504011502 73 0.0 0.0 0.00 0.00 0.00 47 1017.6
20260504011007 73 0.0 0.0 0.00 0.00 0.00 46 1017.7
20260504010503 73 0.0 0.0 0.00 0.00 0.00 46 1017.5
20260504010009 73 0.0 0.0 0.00 0.00 0.00 45 1017.5
20260504005503 74 0.0 0.0 0.00 0.00 0.00 44 1017.5
20260504005006 74 0.0 0.0 0.00 0.00 0.00 44 1017.5
20260504004513 74 0.0 0.0 0.00 0.00 0.00 43 1017.6
20260504004005 75 0.0 0.0 0.00 0.00 0.00 44 1017.6
20260504003507 75 0.0 0.0 0.00 0.00 0.00 42 1017.6
20260504003020 75 0.0 0.0 0.00 0.00 0.00 42 1017.7
20260504002508 76 0.0 0.0 0.00 0.00 0.00 42 1017.5
20260504002009 76 0.0 0.0 0.00 0.00 0.00 41 1017.6
20260504001524 76 0.0 0.0 0.00 0.00 0.00 40 1017.6
20260504001008 77 0.0 0.0 0.00 0.00 0.00 40 1017.6
20260504000508 77 0.0 0.0 0.00 0.00 0.00 40 1017.6
20260504000026 78 0.0 0.0 0.00 0.00 0.00 39 1017.5
20260503235510 79 0.0 0.0 0.00 0.00 0.00 39 1017.5
20260503235003 79 0.0 0.0 0.00 0.00 0.00 37 1017.5
20260503234510 80 0.0 0.0 0.00 0.00 0.00 36 1017.6
20260503234011 80 0.0 0.0 0.00 0.00 0.00 34 1017.7
20260503233503 80 0.0 0.0 0.00 0.00 0.00 34 1017.6
20260503233016 80 0.0 0.0 0.00 0.00 0.00 33 1017.6
20260503232510 80 0.0 0.0 0.00 0.00 0.00 34 1017.6
20260503232011 80 0.0 0.0 0.00 0.00 0.00 34 1017.8
20260503231522 80 0.0 0.0 0.00 0.00 0.00 32 1017.9
20260503231009 80 0.0 0.0 0.00 0.00 0.00 30 1017.9
20260503230508 80 0.0 0.0 0.00 0.00 0.00 31 1017.9
20260503230023 80 0.0 0.0 0.00 0.00 0.00 31 1017.8
20260503225507 80 0.0 0.0 0.00 0.00 0.00 31 1018.0
20260503225003 80 0.0 0.0 0.00 0.00 0.00 31 1017.9
20260503224507 80 0.0 0.0 0.00 0.00 0.00 31 1017.9
20260503224005 81 0.0 0.0 0.00 0.00 0.00 30 1018.1
20260503223507 81 0.0 0.0 0.00 0.00 0.00 29 1018.2
20260503223012 81 0.0 0.0 0.00 0.00 0.00 31 1018.2
20260503222511 81 0.0 0.0 0.00 0.00 0.00 30 1018.2
20260503222013 81 0.0 0.0 0.00 0.00 0.00 32 1018.3
20260503221528 81 0.0 0.0 0.00 0.00 0.00 31 1018.3
20260503221008 81 0.0 0.0 0.00 0.00 0.00 30 1018.5
20260503220508 82 0.0 0.0 0.00 0.00 0.00 32 1018.5
20260503220030 81 0.0 0.0 0.00 0.00 0.00 31 1018.5
20260503215510 82 0.0 0.0 0.00 0.00 0.00 31 1018.5
20260503215013 82 0.0 0.0 0.00 0.00 0.00 29 1018.5
20260503214528 82 0.0 0.0 0.00 0.00 0.00 30 1018.6
20260503214015 82 0.0 0.0 0.00 0.00 0.00 30 1018.6
20260503213510 82 0.0 0.0 0.00 0.00 0.00 30 1018.7
20260503213025 83 0.0 0.0 0.00 0.00 0.00 29 1018.7
20260503212506 83 0.0 0.0 0.00 0.00 0.00 31 1019.0
20260503212006 83 0.0 0.0 0.00 0.00 0.00 30 1019.2
20260503211518 83 0.0 0.0 0.00 0.00 0.00 31 1019.1
20260503211009 83 0.0 0.0 0.00 0.00 0.00 32 1019.1
20260503210506 82 0.0 0.0 0.00 0.00 0.00 32 1019.3
20260503210021 82 0.0 0.0 0.00 0.00 0.00 31 1019.3
20260503205507 82 0.0 0.0 0.00 0.00 0.00 32 1019.3
20260503205012 83 0.0 0.0 0.00 0.00 0.00 30 1019.4
20260503204526 83 0.0 0.0 0.00 0.00 0.00 32 1019.5
20260503204012 83 0.0 0.0 0.00 0.00 0.00 31 1019.6
20260503203508 83 0.0 0.0 0.00 0.00 0.00 33 1019.7
20260503203034 83 0.0 0.0 0.00 0.00 0.00 32 1019.6
20260503202509 83 0.0 0.0 0.00 0.00 0.00 31 1019.9
20260503202013 82 0.0 0.0 0.00 0.00 0.00 31 1019.9
20260503201525 82 0.0 0.0 0.00 0.00 0.00 33 1020.0
20260503201008 82 0.0 0.0 0.00 0.00 0.00 31 1020.2
20260503200507 82 0.0 0.0 0.00 0.00 0.00 33 1020.2
20260503200027 82 0.0 0.0 0.00 0.00 0.00 30 1020.3
20260503195506 82 0.0 0.0 0.00 0.00 0.00 31 1020.5
20260503195006 82 0.0 0.0 0.00 0.00 0.00 31 1020.6
20260503194528 82 0.0 0.0 0.00 0.00 0.00 32 1020.6
20260503194008 82 0.0 0.0 0.00 0.00 0.00 33 1020.6
20260503193515 82 0.0 0.0 0.00 0.00 0.00 31 1020.7
20260503193026 82 0.0 0.0 0.00 0.00 0.00 33 1020.8
20260503192509 82 0.0 0.0 0.00 0.00 0.00 31 1020.8
20260503192002 82 0.0 0.0 0.00 0.00 0.00 33 1020.9
20260503191510 82 0.0 0.0 0.00 0.00 0.00 31 1020.9
20260503191006 82 0.0 0.0 0.00 0.00 0.00 31 1021.1
20260503190507 81 0.0 0.0 0.00 0.00 0.00 33 1021.1
20260503190028 81 0.0 0.0 0.00 0.00 0.00 31 1021.3